This is the latest recevied weather packets stored in our database for station/object K6GMW. If no packets are shown the sender has not sent any weather packets the latest 10 day(s).
| Time | Temp. | Humidity | Pressure | Rain* | Wind** | Luminosity | Snow |
|---|---|---|---|---|---|---|---|
| 1777494339 | 17.78° C | 95% | 1013.8 hPa | 1.27 mm | - | 15 W/m² | - |
| 1777494035 | 17.78° C | 95% | 1013.5 hPa | 0 mm | - | 19 W/m² | - |
| 1777493733 | 17.78° C | 95% | 1013.3 hPa | 0 mm | - | 25 W/m² | - |
| 1777493431 | 18.33° C | 95% | 1013.7 hPa | 0 mm | - | 23 W/m² | - |
| 1777493126 | 18.33° C | 95% | 1014 hPa | 0 mm | - | 10 W/m² | - |
| 1777492824 | 18.33° C | 95% | 1014 hPa | 0 mm | - | 18 W/m² | - |
| 1777492520 | 18.33° C | 95% | 1014.2 hPa | 0 mm | - | 28 W/m² | - |
| 1777492216 | 18.33° C | 95% | 1013.9 hPa | 0 mm | - | 68 W/m² | - |
| 1777491913 | 18.33° C | 95% | 1013.7 hPa | 0 mm | - | 76 W/m² | - |
| 1777491609 | 18.33° C | 94% | 1013.4 hPa | 0 mm | - | 110 W/m² | - |
| 1777491307 | 18.33° C | 94% | 1014 hPa | 0 mm | - | 165 W/m² | - |
| 1777491003 | 18.89° C | 95% | 1013.3 hPa | 0 mm | - | 271 W/m² | - |
| 1777490699 | 18.89° C | 96% | 1013.8 hPa | 0 mm | - | 331 W/m² | - |
| 1777490395 | 18.89° C | 96% | 1014.1 hPa | 0 mm | - | 253 W/m² | - |
| 1777490093 | 18.33° C | 95% | 1013.9 hPa | 0 mm | - | 278 W/m² | - |
| 1777489790 | 18.33° C | 97% | 1013.3 hPa | 0 mm | - | 401 W/m² | - |
| 1777489488 | 18.33° C | 97% | 1013.7 hPa | 1.78 mm | - | 459 W/m² | - |
| 1777489184 | 17.78° C | 97% | 1014.2 hPa | 11.43 mm | - | 974 W/m² | - |
| 1777488881 | 17.78° C | 96% | 1014.4 hPa | 14.99 mm | - | 363 W/m² | - |
| 1777488578 | 17.78° C | 96% | 1014.3 hPa | 9.65 mm | - | 137 W/m² | - |
| 1777488276 | 17.22° C | 95% | 1015.3 hPa | 1.27 mm | - | 57 W/m² | - |
| 1777487974 | 17.22° C | 95% | 1014.7 hPa | 0 mm | - | 41 W/m² | - |
| 1777487671 | 17.22° C | 95% | 1015.2 hPa | 0 mm | - | 26 W/m² | - |
| 1777487368 | 17.22° C | 95% | 1014.7 hPa | 0 mm | - | 49 W/m² | - |
| 1777487066 | 17.22° C | 95% | 1014.4 hPa | 0 mm | - | 86 W/m² | - |
* Rain latest hour (hover to see other rain measurements)
** Current wind speed in m/s (hover to see current wind gust speed)